Seeley, CA

6:58 AM PST on February 06, 2016 (GMT -0800)
El Centro Naval Air Facility

Weather History for KNJK - August, 2013

Change the Weather History Date:

Thursday, August 1, 2013

  Actual Average Record
Temperature  
Mean Temperature 93 °F -  
Max Temperature 111 °F 105 °F 113 °F (2008)
Min Temperature 77 °F 79 °F 73 °F (2006)
Cooling Degree Days 28    
Growing Degree Days 43 (Base 50)    
Moisture  
Dew Point 38 °F    
Average Humidity 16    
Maximum Humidity 32    
Minimum Humidity 6    
Precipitation  
Precipitation 0.00 in - - ()
Sea Level Pressure  
Sea Level Pressure 29.79 in    
Wind  
Wind Speed 3 mph (South)    
Max Wind Speed 20 mph    
Max Gust Speed -    
Visibility 10 miles    
Events      
Averages and records for this station are not official NWS values.
T = Trace of Precipitation, MM = Missing Value Source: NWS Daily Summary

Daily Weather History Graph

Daily Weather History Graph

Search for Another Location

Airport or City:

Trip Planner

Search our weather history database for the weather conditions in past years. The results will help you decide how hot, cold, wet, or windy it might be!

Date:

Astronomy

Aug. 01, 2013 Rise Set
Actual Time 5:56 AM PDT 7:40 PM PDT
Civil Twilight 5:29 AM PDT 8:07 PM PDT
Nautical Twilight 4:57 AM PDT 8:40 PM PDT
Astronomical Twilight 4:23 AM PDT 9:14 PM PDT
Moon 1:37 AM PDT (8/1) 3:51 PM PDT (8/1)
Length of Visible Light 14h 38m
Length of Day
13h 44m
Waning Crescent, 22% of the Moon is Illuminated
Aug 1
Waning Crescent
Aug 6
New
Aug 14
First Quarter
Aug 20
Full
Aug 28
Last Quarter

Hourly Weather History & Observations

Time (PDT) Temp. Heat Index Dew Point Humidity Pressure Visibility Wind Dir Wind Speed Gust Speed Precip Events Conditions
12:56 AM 84.9 °F - 28.0 °F 13% 29.83 in 10.0 mi Calm Calm - N/A   Unknown
1:56 AM 84.0 °F - 32.0 °F 15% 29.82 in 10.0 mi Calm Calm - N/A   Unknown
2:56 AM 82.9 °F - 30.9 °F 15% 29.81 in 10.0 mi NE 3.5 mph - N/A   Unknown
3:56 AM 77.0 °F - 43.0 °F 30% 29.80 in 10.0 mi Calm Calm - N/A   Unknown
4:56 AM 79.0 °F - 41.0 °F 26% 29.81 in 10.0 mi Calm Calm - N/A   Unknown
5:56 AM 77.0 °F - 45.0 °F 32% 29.83 in 10.0 mi Calm Calm - N/A   Scattered Clouds
6:56 AM 80.1 °F - 46.9 °F 31% 29.85 in 10.0 mi East 3.5 mph - N/A   Scattered Clouds
7:56 AM 89.1 °F 87.1 °F 55.0 °F 31% 29.86 in 10.0 mi Calm Calm - N/A   Scattered Clouds
8:56 AM 95.0 °F - 30.0 °F 10% 29.86 in 10.0 mi ENE 3.5 mph - N/A   Partly Cloudy
9:56 AM 98.1 °F - 33.1 °F 10% 29.86 in 10.0 mi NE 4.6 mph - N/A   Partly Cloudy
10:56 AM 100.0 °F - 36.0 °F 11% 29.85 in 10.0 mi Calm Calm - N/A   Partly Cloudy
11:56 AM 102.9 °F - 34.0 °F 9% 29.84 in 10.0 mi Calm Calm - N/A   Partly Cloudy
12:56 PM 105.1 °F - 35.1 °F 9% 29.82 in 10.0 mi Variable 3.5 mph - N/A   Partly Cloudy
1:56 PM 106.0 °F - 34.0 °F 8% 29.79 in 10.0 mi ESE 5.8 mph - N/A   Partly Cloudy
2:56 PM 108.0 °F - 39.0 °F 10% 29.76 in 10.0 mi SE 4.6 mph - N/A   Partly Cloudy
3:56 PM 109.0 °F - 42.1 °F 10% 29.73 in 10.0 mi SE 5.8 mph - N/A   Partly Cloudy
4:56 PM 109.0 °F - 39.9 °F 10% 29.70 in 10.0 mi ESE 4.6 mph - N/A   Partly Cloudy
5:56 PM 109.0 °F - 28.9 °F 6% 29.70 in 9.0 mi West 19.6 mph - N/A   Partly Cloudy
6:56 PM 104.0 °F - 35.1 °F 9% 29.71 in 10.0 mi WSW 12.7 mph - N/A   Partly Cloudy
7:56 PM 97.0 °F - 39.9 °F 14% 29.73 in 10.0 mi SW 8.1 mph - N/A   Scattered Clouds
8:56 PM 93.0 °F - 39.9 °F 16% 29.75 in 10.0 mi WSW 5.8 mph - N/A   Scattered Clouds
9:56 PM 91.0 °F - 39.0 °F 16% 29.77 in 10.0 mi West 10.4 mph - N/A   Scattered Clouds
10:56 PM 90.0 °F - 37.0 °F 15% 29.77 in 10.0 mi West 16.1 mph - N/A   Scattered Clouds
11:56 PM 87.1 °F - 37.9 °F 18% 29.78 in 10.0 mi West 8.1 mph - N/A   Unknown